datetime,flow volume
2003-05-05,329.47934
2003-05-06,465.97107
2003-05-07,480.22727
2003-05-08,404.59607
2003-05-09,328.96488
2003-05-10,314.09091
2003-05-11,359.52479
2003-05-12,348.82231
2003-05-13,452.15496
2003-05-14,528.84298
2003-05-15,422.27273
2003-05-16,455.33058
2003-05-17,449.58678
2003-05-18,451.7562
2003-05-19,437.48099
2003-05-20,466.61157
2003-05-21,457.72727
2003-05-22,434.19421
2003-05-23,416.71488
2003-05-24,426.88017
2003-05-25,405.92975
2003-05-26,411.71488
2003-05-27,463.36777
2003-05-28,477.45868
2003-05-29,491.61157
2003-05-30,495.30992
2003-05-31,475.35124
2003-06-01,455.39256
2003-06-02,450.20661
2003-06-03,501.44628
2003-06-04,527.85124
2003-06-05,480.76446
2003-06-06,482.29339
2003-06-07,460.61983
2003-06-08,454.91736
2003-06-09,470.12397
2003-06-10,490.0
2003-06-11,486.34298
2003-06-12,454.75207
2003-06-13,466.4876
2003-06-14,468.09917
2003-06-15,463.94628
2003-06-16,454.58678
2003-06-17,452.02479
2003-06-18,443.92562
2003-06-19,462.93388
2003-06-20,413.03719
2003-06-21,416.27066
2003-06-22,419.50413
2003-06-23,425.10331
2003-06-24,437.35537
2003-06-25,454.27686
2003-06-26,483.40909
2003-06-27,473.96694
2003-06-28,444.21488
2003-06-29,397.10744
2003-06-30,378.69835
2003-07-01,402.2314
2003-07-02,413.09917
2003-07-03,412.56198
2003-07-04,395.86777
2003-07-05,401.69421
2003-07-06,422.52066
2003-07-07,404.44215
2003-07-08,384.69008
2003-07-09,394.19421
2003-07-10,381.67355
2003-07-11,382.56198
2003-07-12,386.77686
2003-07-13,388.71901
2003-07-14,390.43388
2003-07-15,392.47934
2003-07-16,374.95868
2003-07-17,323.67769
2003-07-18,364.09091
2003-07-19,347.60331
2003-07-20,335.02066
2003-07-21,354.75207
2003-07-22,364.91736
2003-07-23,401.46694
2003-07-24,456.59091
2003-07-25,437.2314
2003-07-26,457.29339
2003-07-27,477.35537
2003-07-28,431.0124
2003-07-29,451.52204
2003-07-30,393.59504
2003-07-31,333.36777
2003-08-01,374.40083
2003-08-02,364.87603
2003-08-03,353.40909
2003-08-04,327.37603
2003-08-05,339.89669
2003-08-06,424.07025
2003-08-07,400.24793
2003-08-08,372.62397
2003-08-09,355.28926
2003-08-10,360.82645
2003-08-11,370.28926
2003-08-12,364.83471
2003-08-13,387.54132
2003-08-14,393.26446
2003-08-15,331.67355
2003-08-16,306.46694
2003-08-17,281.73554
2003-08-18,265.02066
2003-08-19,306.44628
2003-08-20,340.61983
2003-08-21,357.93388
2003-08-22,340.09298
2003-08-23,322.25207
2003-08-24,297.93388
2003-08-25,265.04132
2003-08-26,308.28512
2003-08-27,327.97521
2003-08-28,304.87603
2003-08-29,332.66529
2003-08-30,351.83884
2003-08-31,323.11983
2003-09-01,328.30579
2003-09-02,374.91736
2003-09-03,392.72727
2003-09-04,392.5
2003-09-05,371.59091
2003-09-06,375.68182
2003-09-07,322.00413
2003-09-08,339.23554
2003-09-09,202.21074
2003-09-10,109.66529
2003-09-11,175.81612
2003-09-12,172.77479
2003-09-13,151.67769
2003-09-14,179.3781
2003-09-15,219.89669
2003-09-16,158.56818
2003-09-17,141.78306
2003-09-18,201.72107
2003-09-19,251.7562
2003-09-20,260.08264
2003-09-21,268.40909
2003-09-22,255.57851
2003-09-23,254.52479
2003-09-24,302.62397
2003-09-25,337.8719
2003-09-26,324.83471
2003-09-27,307.31405
2003-09-28,289.91736
2003-09-29,320.90909
2003-09-30,351.90083
2003-10-01,342.1281
2003-10-02,319.95868
2003-10-03,239.66942
2003-10-04,181.90909
2003-10-05,164.16116
2003-10-06,199.47314
2003-10-07,268.57438
2003-10-08,248.82231
2003-10-09,240.12397
2003-10-10,213.90496
2003-10-11,186.52686
2003-10-12,159.14876
2003-10-13,153.28099
2003-10-14,218.16942
2003-10-15,246.24793
2003-10-16,147.05992
2003-10-17,61.13306
2003-10-18,20.42975
2003-10-19,20.42975
2003-10-20,85.44628
2003-10-21,108.54752
2003-10-22,103.22107
2003-10-23,51.31612
2003-10-24,19.45785
2003-10-25,19.45785
2003-10-26,19.07335
2003-10-27,52.93471
2003-10-28,44.53595
2003-10-29,19.45785
2003-10-30,29.43595
2003-10-31,19.84256
2003-11-01,19.45785
2003-11-02,19.45785
2003-11-03,71.04339
2003-11-04,70.4876
2003-11-05,69.53306
2003-11-06,65.09504
2003-11-07,45.29607
2003-11-08,14.99545
2003-11-09,11.68264
2003-11-10,11.68264
2003-11-11,11.68264
2003-11-12,11.68264
2003-11-13,11.68264
2003-11-14,11.68264
2003-11-15,11.68264
2003-11-16,11.68264
2003-11-17,11.68264
2003-11-18,10.80331
2003-11-19,10.92893
2003-11-20,11.14876
2003-11-21,12.11322
2003-11-22,13.28926
2003-11-23,12.81488
2003-11-24,12.78099
2003-11-25,13.28926
2003-11-26,13.67107
2003-11-27,14.44339
2003-11-28,14.40868
2003-11-29,14.12231
2003-11-30,14.12231
2003-12-01,14.12231
2003-12-02,13.84174
2003-12-03,13.56116
2003-12-04,13.28926
2003-12-05,13.28926
2003-12-06,13.28926
2003-12-07,13.28926
2003-12-08,13.28926
2003-12-09,13.28926
2003-12-10,13.28926
2003-12-11,13.28926
2003-12-12,13.28926
2003-12-13,13.28926
2003-12-14,13.28926
2003-12-15,13.28926
2003-12-16,13.28926
2003-12-17,13.28926
2003-12-18,13.28926
2003-12-19,13.28926
2003-12-20,13.28926
2003-12-21,13.28926
2003-12-22,13.28926
2003-12-23,13.28926
2003-12-24,13.28926
2003-12-25,13.28926
2003-12-26,13.28926
2003-12-27,13.28926
2003-12-28,13.28926
2003-12-29,12.77252
2003-12-30,12.73581
2003-12-31,12.6991
2004-01-01,12.6624
2004-01-02,12.82335
2004-01-03,12.47603
2004-01-04,12.47603
2004-01-05,12.47603
2004-01-06,12.6624
2004-01-07,13.27231
2004-01-08,13.28926
2004-01-09,12.87417
2004-01-10,12.47603
2004-01-11,12.8657
2004-01-12,13.01818
2004-01-13,12.47603
2004-01-14,12.12893
2004-01-15,12.05455
2004-01-16,12.47603
2004-01-17,12.47603
2004-01-18,12.23636
2004-01-19,12.32727
2004-01-20,12.47603
2004-01-21,12.25289
2004-01-22,12.00496
2004-01-23,12.47603
2004-01-24,12.47603
2004-01-25,12.47603
2004-01-26,12.47603
2004-01-27,11.95537
2004-01-28,15.62893
2004-01-29,13.86198
2004-01-30,13.28926
2004-01-31,13.28926
2004-02-01,13.28926
2004-02-02,13.28926
2004-02-03,12.41639
2004-02-04,11.54353
2004-02-05,10.67066
2004-02-06,7.37851
2004-02-07,7.37851
2004-02-08,7.37851
2004-02-09,7.37851
2004-02-10,7.01033
2004-02-11,6.7239700000000004
2004-02-12,6.7239700000000004
2004-02-13,6.7239700000000004
2004-02-14,6.7239700000000004
2004-02-15,6.7239700000000004
2004-02-16,6.7239700000000004
2004-02-17,6.7239700000000004
2004-02-18,6.7239700000000004
2004-02-19,6.7239700000000004
2004-02-20,6.7239700000000004
2004-02-21,6.7239700000000004
2004-02-22,6.7239700000000004
2004-02-23,6.7239700000000004
2004-02-24,6.7239700000000004
2004-02-25,6.7239700000000004
2004-02-26,6.7239700000000004
2004-02-27,6.7239700000000004
2004-02-28,6.7239700000000004
2004-02-29,6.7239700000000004
2004-03-01,6.97624
2004-03-02,7.10579
2004-03-03,6.7239700000000004
2004-03-04,6.7239700000000004
2004-03-05,6.7239700000000004
2004-03-06,6.87397
2004-03-07,7.58223
2004-03-08,10.20165
2004-03-09,10.10496
2004-03-10,10.01839
2004-03-11,9.86178
2004-03-12,10.17521
2004-03-13,9.17211
2004-03-14,9.09917
2004-03-15,9.44132
2004-03-16,10.0632
2004-03-17,10.68508
2004-03-18,11.30695
2004-03-19,11.92883
2004-03-20,12.5507
2004-03-21,13.19091
2004-03-22,12.00723
2004-03-23,10.36715
2004-03-24,29.63265
2004-03-25,46.65868
2004-03-26,13.90537
2004-03-27,12.80641
2004-03-28,12.02975
2004-03-29,149.37624
2004-03-30,114.46694
2004-03-31,152.14876
2004-04-01,70.80744
2004-04-02,11.8626
2004-04-03,11.96033
2004-04-04,12.01035
2004-04-05,12.4314
2004-04-06,10.75475
2004-04-07,10.764050000000001
2004-04-08,55.18492
2004-04-09,142.47934
2004-04-10,189.52273
2004-04-11,184.13636
2004-04-12,184.79545
2004-04-13,186.33678
2004-04-14,213.6281
2004-04-15,224.93802
2004-04-16,214.10744
2004-04-17,207.97521
2004-04-18,208.1095
2004-04-19,194.48967
2004-04-20,188.90909
2004-04-21,193.50827
2004-04-22,196.58471
2004-04-23,98.40909
2004-04-24,43.54959
2004-04-25,54.41736
2004-04-26,204.75413
2004-04-27,277.21074
2004-04-28,330.22727
2004-04-29,333.65702
2004-04-30,180.61157
2004-05-01,157.95868
2004-05-02,172.49587
2004-05-03,330.21901
2004-05-04,401.81818
2004-05-05,492.04546
2004-05-06,444.31818
2004-05-07,470.82645
2004-05-08,518.22314
2004-05-09,464.81405
2004-05-10,493.59504
2004-05-11,573.78099
2004-05-12,461.05372
2004-05-13,512.70661
2004-05-14,514.48347
2004-05-15,492.58264
2004-05-16,567.95455
2004-05-17,604.11157
2004-05-18,672.66529
2004-05-19,608.01653
2004-05-20,612.7686
2004-05-21,531.54959
2004-05-22,500.57851
2004-05-23,507.04546
2004-05-24,609.42149
2004-05-25,625.86777
2004-05-26,673.71901
2004-05-27,637.70661
2004-05-28,629.87603
2004-05-29,615.6405
2004-05-30,534.71074
2004-05-31,521.73554
2004-06-01,623.32645
2004-06-02,644.2562
2004-06-03,606.23967
2004-06-04,546.67355
2004-06-05,605.41322
2004-06-06,539.40083
2004-06-07,555.53719
2004-06-08,628.92562
2004-06-09,607.68595
2004-06-10,548.38843
2004-06-11,602.62397
2004-06-12,596.61157
2004-06-13,575.20661
2004-06-14,592.66529
2004-06-15,620.82645
2004-06-16,611.40496
2004-06-17,596.65289
2004-06-18,543.96694
2004-06-19,549.71074
2004-06-20,569.54545
2004-06-21,627.29339
2004-06-22,633.90496
2004-06-23,618.36777
2004-06-24,618.36777
2004-06-25,655.59917
2004-06-26,616.36364
2004-06-27,626.30165
2004-06-28,588.01653
2004-06-29,525.92975
2004-06-30,574.91736
2004-07-01,508.40909
2004-07-02,501.09504
2004-07-03,517.25207
2004-07-04,501.7562
2004-07-05,476.34298
2004-07-06,520.86777
2004-07-07,541.7562
2004-07-08,546.19835
2004-07-09,532.33471
2004-07-10,530.92975
2004-07-11,513.22314
2004-07-12,518.6157
2004-07-13,531.42562
2004-07-14,525.61983
2004-07-15,489.42149
2004-07-16,458.71901
2004-07-17,514.75207
2004-07-18,476.50826
2004-07-19,453.49174
2004-07-20,455.45455
2004-07-21,418.09917
2004-07-22,439.83471
2004-07-23,427.04545
2004-07-24,370.08264
2004-07-25,390.7438
2004-07-26,375.72314
2004-07-27,358.69835
2004-07-28,350.47521
2004-07-29,370.90909
2004-07-30,414.95868
2004-07-31,418.86364
2004-08-01,407.83058
2004-08-02,477.02479
2004-08-03,451.63223
2004-08-04,469.48347
2004-08-05,451.69422
2004-08-06,431.69421
2004-08-07,469.83471
2004-08-08,484.87603
2004-08-09,434.21488
2004-08-10,485.17906
2004-08-11,468.3719
2004-08-12,451.54959
2004-08-13,446.46694
2004-08-14,438.73967
2004-08-15,430.6405
2004-08-16,444.85537
2004-08-17,436.15702
2004-08-18,492.25207
2004-08-19,441.30165
2004-08-20,411.7562
2004-08-21,417.68595
2004-08-22,395.12397
2004-08-23,384.58678
2004-08-24,443.20248
2004-08-25,446.88016
2004-08-26,479.56612
2004-08-27,495.41322
2004-08-28,376.28099
2004-08-29,378.32645
2004-08-30,470.20661
2004-08-31,525.72314
2004-09-01,529.79339
2004-09-02,544.42149
2004-09-03,432.58264
2004-09-04,357.68595
2004-09-05,242.06198
2004-09-06,329.21488
2004-09-07,373.20248
2004-09-08,358.22314
2004-09-09,328.59504
2004-09-10,327.27273
2004-09-11,327.27273
2004-09-12,321.57025
2004-09-13,389.7314
2004-09-14,428.8843
2004-09-15,442.64463
2004-09-16,426.0124
2004-09-17,341.3843
2004-09-18,332.97521
2004-09-19,322.72727
2004-09-20,205.09917
2004-09-21,166.05165
2004-09-22,191.34298
2004-09-23,183.90909
2004-09-24,162.38223
2004-09-25,170.56818
2004-09-26,174.0124
2004-09-27,220.23347
2004-09-28,282.21074
2004-09-29,207.3657
2004-09-30,131.74174
2004-10-01,118.67355
2004-10-02,120.2562
2004-10-03,133.4876
2004-10-04,194.16116
2004-10-05,191.51446
2004-10-06,191.22314
2004-10-07,191.3781
2004-10-08,117.07231
2004-10-09,106.80992
2004-10-10,123.86157
2004-10-11,135.62397
2004-10-12,167.70609
2004-10-13,199.78822
2004-10-14,164.38017
2004-10-15,128.02479
2004-10-16,108.72934
2004-10-17,102.14876
2004-10-18,145.44421
2004-10-19,149.55372
2004-10-20,177.82231
2004-10-21,223.9876
2004-10-22,223.05785
2004-10-23,210.18595
2004-10-24,168.0307
2004-10-25,209.57231
2004-10-26,232.90496
2004-10-27,130.08884
2004-10-28,117.41322
2004-10-29,116.58471
2004-10-30,61.1157
2004-10-31,39.47225
2004-11-01,13.82211
2004-11-02,12.79917
2004-11-03,12.14587
2004-11-04,12.45764
2004-11-05,12.47603
2004-11-06,12.47603
2004-11-07,13.28078
2004-11-08,13.77831
2004-11-09,13.57335
2004-11-10,13.92273
2004-11-11,13.28926
2004-11-12,13.28926
2004-11-13,13.28926
2004-11-14,13.45413
2004-11-15,37.81446
2004-11-16,62.62397
2004-11-17,61.05785
2004-11-18,37.95723
2004-11-19,14.12231
2004-11-20,14.12231
2004-11-21,14.12231
2004-11-22,11.45641
2004-11-23,8.95785
2004-11-24,9.44132
2004-11-25,9.44132
2004-11-26,9.07686
2004-11-27,8.72727
2004-11-28,8.95041
2004-11-29,9.21074
2004-11-30,8.26364
2004-12-01,8.05289
2004-12-02,8.05289
2004-12-03,8.05289
2004-12-04,8.05289
2004-12-05,8.05289
2004-12-06,8.24959
2004-12-07,8.72727
2004-12-08,8.72727
2004-12-09,8.72727
2004-12-10,8.72727
2004-12-11,8.72727
2004-12-12,8.72727
2004-12-13,8.72727
2004-12-14,8.72727
2004-12-15,9.4686
2004-12-16,10.1814
2004-12-17,9.44132
2004-12-18,9.44132
2004-12-19,9.44132
2004-12-20,9.44132
2004-12-21,9.26281
2004-12-22,8.72727
2004-12-23,8.86116
2004-12-24,9.44132
2004-12-25,9.44132
2004-12-26,9.84649
2004-12-27,10.17521
2004-12-28,9.70124
2004-12-29,8.83884
2004-12-30,8.72727
2004-12-31,9.09174
2005-01-01,9.44132
2005-01-02,9.44132
2005-01-03,9.44132
2005-01-04,9.44132
2005-01-05,9.9186
2005-01-06,10.17521
2005-01-07,10.17521
2005-01-08,9.77769
2005-01-09,9.67955
2005-01-10,10.67769
2005-01-11,10.4657
2005-01-12,9.70103
2005-01-13,8.08802
2005-01-14,7.37851
2005-01-15,7.37851
2005-01-16,7.85806
2005-01-17,10.17521
2005-01-18,10.17521
2005-01-19,9.83884
2005-01-20,9.61715
2005-01-21,10.17521
2005-01-22,10.17521
2005-01-23,10.17521
2005-01-24,9.67066
2005-01-25,9.44132
2005-01-26,9.44132
2005-01-27,9.07686
2005-01-28,8.33388
2005-01-29,8.05289
2005-01-30,8.05289
2005-01-31,8.05289
2005-02-01,7.6033100000000005
2005-02-02,7.37851
2005-02-03,7.37851
2005-02-04,7.37851
2005-02-05,7.37851
2005-02-06,7.37851
2005-02-07,7.37851
2005-02-08,7.37851
2005-02-09,7.37851
2005-02-10,7.37851
2005-02-11,7.69463
2005-02-12,7.72273
2005-02-13,7.37851
2005-02-14,7.37851
2005-02-15,7.37851
2005-02-16,7.37851
2005-02-17,7.37851
2005-02-18,7.37851
2005-02-19,7.37851
2005-02-20,7.37851
2005-02-21,7.37851
2005-02-22,7.37851
2005-02-23,7.37851
2005-02-24,7.37851
2005-02-25,7.37851
2005-02-26,7.37851
2005-02-27,7.72975
2005-02-28,8.05289
2005-03-01,8.05289
2005-03-02,8.05289
2005-03-03,8.05289
2005-03-04,8.05289
2005-03-05,8.05289
2005-03-06,8.05289
2005-03-07,11.44752
2005-03-08,10.11281
2005-03-09,10.17521
2005-03-10,10.17521
2005-03-11,10.17521
2005-03-12,10.17521
2005-03-13,10.17521
2005-03-14,10.17521
2005-03-15,10.17521
2005-03-16,10.17521
2005-03-17,10.17521
2005-03-18,10.17521
2005-03-19,10.17521
2005-03-20,10.17521
2005-03-21,10.17521
2005-03-22,12.13698
2005-03-23,17.91735
2005-03-24,14.93843
2005-03-25,12.78099
2005-03-26,12.4845
2005-03-27,12.95041
2005-03-28,13.28926
2005-03-29,11.85269
2005-03-30,10.764050000000001
2005-03-31,10.44215
2005-04-01,10.74835
2005-04-02,10.92893
2005-04-03,10.92893
2005-04-04,51.53678
2005-04-05,86.84297
2005-04-06,84.39711
2005-04-07,11.68264
2005-04-08,11.68264
2005-04-09,11.68264
2005-04-10,11.95537
2005-04-11,80.81198
2005-04-12,185.40289
2005-04-13,193.20868
2005-04-14,204.30992
2005-04-15,195.86364
2005-04-16,229.09091
2005-04-17,262.89876
2005-04-18,299.7314
2005-04-19,331.30165
2005-04-20,320.28926
2005-04-21,354.85537
2005-04-22,355.88843
2005-04-23,345.76446
2005-04-24,315.7438
2005-04-25,261.40496
2005-04-26,158.13636
2005-04-27,104.28512
2005-04-28,101.84504
2005-04-29,107.50413
2005-04-30,105.52066
2005-05-01,100.58678
2005-05-02,100.43802
2005-05-03,85.7376
2005-05-04,74.64256
2005-05-05,104.7376
2005-05-06,232.53719
2005-05-07,250.35124
2005-05-08,254.33884
2005-05-09,267.78926
2005-05-10,353.42975
2005-05-11,347.72727
2005-05-12,284.79339
2005-05-13,347.72727
2005-05-14,377.29339
2005-05-15,400.0
2005-05-16,421.52892
2005-05-17,473.55372
2005-05-18,499.89669
2005-05-19,509.27686
2005-05-20,561.09504
2005-05-21,593.84297
2005-05-22,582.10744
2005-05-23,566.54959
2005-05-24,589.6281
2005-05-25,554.91735
2005-05-26,620.2686
2005-05-27,629.07025
2005-05-28,589.50413
2005-05-29,623.78099
2005-05-30,627.64463
2005-05-31,606.32231
2005-06-01,613.36777
2005-06-02,548.01653
2005-06-03,500.35124
2005-06-04,509.2562
2005-06-05,501.46694
2005-06-06,501.30165
2005-06-07,491.23967
2005-06-08,563.96694
2005-06-09,570.90909
2005-06-10,570.14463
2005-06-11,595.90909
2005-06-12,536.90083
2005-06-13,528.07851
2005-06-14,527.91322
2005-06-15,490.02066
2005-06-16,564.3595
2005-06-17,588.40909
2005-06-18,546.98347
2005-06-19,558.53306
2005-06-20,551.3843
2005-06-21,623.32645
2005-06-22,601.59091
2005-06-23,566.23967
2005-06-24,565.14463
2005-06-25,586.23967
2005-06-26,570.68182
2005-06-27,562.80992
2005-06-28,600.95041
2005-06-29,564.46281
2005-06-30,577.14876
2005-07-01,606.34298
2005-07-02,617.72727
2005-07-03,622.68595
2005-07-04,637.52066
2005-07-05,653.71901
2005-07-06,646.03306
2005-07-07,655.90909
2005-07-08,678.65702
2005-07-09,689.6281
2005-07-10,675.92975
2005-07-11,649.89669
2005-07-12,664.31818
2005-07-13,654.52479
2005-07-14,599.93802
2005-07-15,604.15584
2005-07-16,594.11157
2005-07-17,558.73967
2005-07-18,564.17355
2005-07-19,504.58678
2005-07-20,508.90496
2005-07-21,559.09091
2005-07-22,511.59091
2005-07-23,548.55372
2005-07-24,517.41735
2005-07-25,466.90083
2005-07-26,505.47521
2005-07-27,535.55785
2005-07-28,504.64876
2005-07-29,445.28926
2005-07-30,485.20661
2005-07-31,465.45455
2005-08-01,452.16942
2005-08-02,487.62397
2005-08-03,497.60331
2005-08-04,461.09504
2005-08-05,455.80578
2005-08-06,380.3719
2005-08-07,318.05785
2005-08-08,324.23554
2005-08-09,326.21694
2005-08-10,320.0
2005-08-11,297.35537
2005-08-12,314.33884
2005-08-13,255.35124
2005-08-14,260.78512
2005-08-15,206.97314
2005-08-16,228.39669
2005-08-17,310.92975
2005-08-18,336.7562
2005-08-19,349.33884
2005-08-20,261.26033
2005-08-21,286.32231
2005-08-22,361.07438
2005-08-23,423.49174
2005-08-24,402.91322
2005-08-25,407.33471
2005-08-26,376.30165
2005-08-27,350.86777
2005-08-28,370.78512
2005-08-29,394.40083
2005-08-30,410.61983
2005-08-31,416.77686
2005-09-01,401.81818
2005-09-02,405.57851
2005-09-03,408.8843
2005-09-04,378.90496
2005-09-05,314.33884
2005-09-06,398.28512
2005-09-07,360.86777
2005-09-08,345.70248
2005-09-09,303.6157
2005-09-10,250.06198
2005-09-11,282.66529
2005-09-12,309.17355
2005-09-13,284.54545
2005-09-14,291.34298
2005-09-15,302.74793
2005-09-16,256.81818
2005-09-17,247.62397
2005-09-18,266.96281
2005-09-19,255.86777
2005-09-20,288.28512
2005-09-21,316.13636
2005-09-22,267.06612
2005-09-23,238.92562
2005-09-24,229.19421
2005-09-25,230.47521
2005-09-26,329.27686
2005-09-27,368.28512
2005-09-28,306.65289
2005-09-29,131.63141
2005-09-30,65.55992
2005-10-01,109.22107
2005-10-02,115.24174
2005-10-03,168.91322
2005-10-04,163.07645
2005-10-05,186.31612
2005-10-06,228.6219
2005-10-07,207.41116
2005-10-08,156.16942
2005-10-09,123.15083
2005-10-10,120.19835
2005-10-11,119.39876
2005-10-12,133.42355
2005-10-13,140.2438
2005-10-14,102.26446
2005-10-15,74.24793
2005-10-16,84.41736
2005-10-17,164.42562
2005-10-18,223.67975
2005-10-19,190.91322
2005-10-20,96.69215
2005-10-21,73.47108
2005-10-22,66.87397
2005-10-23,71.02479
2005-10-24,144.61364
2005-10-25,223.2438
2005-10-26,211.21694
2005-10-27,125.23574
2005-10-28,81.8595
2005-10-29,89.58678
2005-10-30,146.08884
2005-10-31,80.67562
2005-11-01,55.2562
2005-11-02,53.95041
2005-11-03,53.95041
2005-11-04,53.95041
2005-11-05,53.95041
2005-11-06,53.95041
2005-11-07,53.95041
2005-11-08,53.95041
2005-11-09,53.95041
2005-11-10,53.95041
2005-11-11,53.95041
2005-11-12,53.95041
2005-11-13,53.95041
2005-11-14,25.2781
2005-11-15,12.2438
2005-11-16,11.15248
2005-11-17,10.90909
2005-11-18,10.39463
2005-11-19,9.71901
2005-11-20,9.71901
2005-11-21,9.71901
2005-11-22,9.71901
2005-11-23,9.71901
2005-11-24,9.71901
2005-11-25,9.71901
2005-11-26,9.71901
2005-11-27,9.71901
2005-11-28,9.71901
2005-11-29,10.7376
2005-11-30,12.00041
2005-12-01,12.02397
2005-12-02,11.66281
2005-12-03,11.66281
2005-12-04,11.66281
2005-12-05,11.66281
2005-12-06,11.66281
2005-12-07,11.66281
2005-12-08,11.66281
2005-12-09,11.66281
2005-12-10,11.66281
2005-12-11,11.66281
2005-12-12,11.66281
2005-12-13,11.66281
2005-12-14,11.66281
2005-12-15,11.66281
2005-12-16,11.66281
2005-12-17,11.66281
2005-12-18,11.66281
2005-12-19,11.66281
2005-12-20,11.66281
2005-12-21,11.92975
2005-12-22,12.41653
2005-12-23,11.992560000000001
2005-12-24,11.66281
2005-12-25,12.09463
2005-12-26,12.41653
2005-12-27,12.41653
2005-12-28,12.22025
2005-12-29,11.19174
2005-12-30,11.05041
2005-12-31,11.66281
2006-01-01,11.20744
2006-01-02,10.90909
2006-01-03,10.90909
2006-01-04,10.90909
2006-01-05,11.10537
2006-01-06,11.66281
2006-01-07,11.5843
2006-01-08,10.90909
2006-01-09,11.11322
2006-01-10,11.47438
2006-01-11,10.90909
2006-01-12,10.90909
2006-01-13,11.30165
2006-01-14,11.21529
2006-01-15,10.90909
2006-01-16,10.90909
2006-01-17,10.90909
2006-01-18,10.90909
2006-01-19,10.90909
2006-01-20,10.90909
2006-01-21,10.90909
2006-01-22,10.90909
2006-01-23,11.11391
2006-01-24,11.66281
2006-01-25,11.66281
2006-01-26,11.28595
2006-01-27,10.90909
2006-01-28,11.32521
2006-01-29,11.55289
2006-01-30,10.90909
2006-01-31,10.90909
2006-02-01,10.90909
2006-02-02,10.90909
2006-02-03,10.90909
2006-02-04,10.71074
2006-02-05,10.5124
2006-02-06,10.31405
2006-02-07,10.31405
2006-02-08,10.72025
2006-02-09,13.71198
2006-02-10,13.17025
2006-02-11,12.8405
2006-02-12,12.8719
2006-02-13,13.17025
2006-02-14,12.79339
2006-02-15,12.58926
2006-02-16,12.69917
2006-02-17,12.41653
2006-02-18,12.41653
2006-02-19,12.41653
2006-02-20,12.41653
2006-02-21,12.41653
2006-02-22,12.41653
2006-02-23,12.41653
2006-02-24,12.41653
2006-02-25,12.41653
2006-02-26,12.41653
2006-02-27,12.55785
2006-02-28,12.93471
2006-03-01,12.41653
2006-03-02,13.5157
2006-03-03,14.96818
2006-03-04,15.4314
2006-03-05,15.4314
2006-03-06,15.21942
2006-03-07,15.4314
2006-03-08,15.4314
2006-03-09,15.14091
2006-03-10,14.67769
2006-03-11,14.67769
2006-03-12,14.67769
2006-03-13,14.28512
2006-03-14,13.92397
2006-03-15,13.92397
2006-03-16,13.92397
2006-03-17,13.92397
2006-03-18,13.92397
2006-03-19,14.01033
2006-03-20,48.00579
2006-03-21,47.67149
2006-03-22,74.51219
2006-03-23,93.28802
2006-03-24,17.69256
2006-03-25,17.69256
2006-03-26,17.69256
2006-03-27,56.90455
2006-03-28,83.22954
2006-03-29,109.51777
2006-03-30,110.21901
2006-03-31,89.72314
2006-04-01,48.74173
2006-04-02,51.72548
2006-04-03,196.61364
2006-04-04,167.13016
2006-04-05,206.03306
2006-04-06,212.17769
2006-04-07,190.04132
2006-04-08,200.70868
2006-04-09,226.50827
2006-04-10,234.09091
2006-04-11,245.57851
2006-04-12,224.77273
2006-04-13,210.90909
2006-04-14,180.22107
2006-04-15,137.16322
2006-04-16,128.59504
2006-04-17,156.41736
2006-04-18,180.0062
2006-04-19,212.32231
2006-04-20,201.17769
2006-04-21,184.34917
2006-04-22,176.10331
2006-04-23,202.0
2006-04-24,250.53719
2006-04-25,372.89256
2006-04-26,465.22727
2006-04-27,439.00826
2006-04-28,415.18595
2006-04-29,442.95455
2006-04-30,433.32645
2006-05-01,442.56198
2006-05-02,573.32645
2006-05-03,636.42562
2006-05-04,562.43802
2006-05-05,573.71901
2006-05-06,588.03719
2006-05-07,592.64463
2006-05-08,614.13223
2006-05-09,623.20248
2006-05-10,589.9368
2006-05-11,585.6095
2006-05-12,598.86364
2006-05-13,651.98347
2006-05-14,686.65289
2006-05-15,651.0124
2006-05-16,574.79339
2006-05-17,645.7438
2006-05-18,643.38843
2006-05-19,673.84298
2006-05-20,676.96281
2006-05-21,668.76033
2006-05-22,649.56612
2006-05-23,627.72727
2006-05-24,703.82231
2006-05-25,663.16116
2006-05-26,687.72727
2006-05-27,641.34298
2006-05-28,644.91735
2006-05-29,630.39256
2006-05-30,600.20661
2006-05-31,593.57438
2006-06-01,665.51653
2006-06-02,635.3719
2006-06-03,615.90909
2006-06-04,650.20661
2006-06-05,600.41322
2006-06-06,611.61157
2006-06-07,628.80165
2006-06-08,583.1405
2006-06-09,485.45455
2006-06-10,522.89256
2006-06-11,511.73554
2006-06-12,527.58264
2006-06-13,571.96281
2006-06-14,579.17355
2006-06-15,560.22727
2006-06-16,586.09504
2006-06-17,581.83884
2006-06-18,599.31818
2006-06-19,573.90496
2006-06-20,642.56198
2006-06-21,678.07851
2006-06-22,650.59917
2006-06-23,640.59917
2006-06-24,645.43388
2006-06-25,665.66116
2006-06-26,628.28512
2006-06-27,651.69421
2006-06-28,674.71074
2006-06-29,682.19008
2006-06-30,678.42975
2006-07-01,704.77273
2006-07-02,685.7438
2006-07-03,670.49587
2006-07-04,670.86777
2006-07-05,619.81405
2006-07-06,529.54546
2006-07-07,334.19421
2006-07-08,329.35744
2006-07-09,255.78512
2006-07-10,441.94215